Flag for Japan Weather past 2 weeks in Sendai, Japan

Now
61 °F

Passing clouds.


Feels Like: 61 °F
Forecast: 37 / 69 °F
Wind: 6 mph from East

Location: Sendai Airport

Current Time: Apr 25, 2015 at 10:09:45 AM

Latest Report: Apr 25, 2015 at 9:00 AM


Visibility: N/A

Pressure: 30.07 "Hg

Humidity: 36%

Dew point: 34 °F

Location of SendaiLocation

Historic Weather in Sendai — Graph

°F

Sendai temperature yesterday

Maximum temperature yesterday: 63 °F (at 9:00 AM)
Minimum temperature yesterday: 48 °F (at 6:00 AM)
Average temperature yesterday: 58 °F

Past Weeks' High & Low Weather Summary

 TemperatureHumidityPressure
High70 °F (Apr 18, 1:00 PM)100% (Apr 10, 2:49 PM)30.45 "Hg (Apr 10, 2:49 PM)
Low37 °F (Apr 12, 6:00 AM)17% (Apr 18, 1:00 PM)29.50 "Hg (Apr 15, 3:00 PM)
Average54 °F73%29.99 "Hg
* Reported Apr 10 9:00 AM — Apr 25 9:00 AM, Sendai, Weather by CustomWeather, © 2015

Note: Actual official high and low records may vary slightly from our data, if they occured in-between our weather recording intervals... More about our weather records

Advertising

Sendai weather history for previous 24 hours

 ConditionsComfort  
Time TempWeatherWind HumidityBarometerVisibility
9:00 AM
Sat, Apr 25
61 °FPassing clouds.6 mph36%30.07 "HgN/A
8:00 AM57 °FPassing clouds.7 mph51%30.07 "HgN/A
7:00 AM55 °FSunny.6 mph59%30.07 "Hg10 mi
6:00 AM52 °FPassing clouds.5 mph67%30.07 "HgN/A
9:00 PM
Fri, Apr 24
57 °FPassing clouds.6 mph77%29.98 "HgN/A
8:00 PM57 °FPartly cloudy.6 mph82%29.95 "HgN/A
7:00 PM61 °FPartly cloudy.10 mph72%29.92 "HgN/A
6:00 PM57 °FPartly sunny.1 mph77%29.92 "HgN/A
5:00 PM59 °FPartly sunny.14 mph72%29.89 "HgN/A
4:00 PM59 °FPartly sunny.24 mph72%29.89 "HgN/A
3:00 PM61 °FPartly sunny.26 mph68%29.89 "HgN/A
2:00 PM63 °FPartly sunny.25 mph64%29.92 "HgN/A
1:00 PM63 °FScattered clouds.24 mph64%29.95 "HgN/A
12:00 PM63 °FPassing clouds.22 mph68%29.98 "HgN/A
11:00 AM63 °FPartly sunny.20 mph68%30.04 "HgN/A
10:00 AM63 °FPartly sunny.13 mph68%30.07 "HgN/A
Weather by CustomWeather, © 2015

See weather overviewHow to use our weather pages